Regional Weather Roundup
Issued by NWS

Current Version | Previous Version | Text Only | Print | Product List | Glossary On
Versions: 1 2 3 4 5 6 7 8 9 10 11 12 13 14 15 16 17 18 19 20 21 22 23 24 25 26 27
000
ASUS45 KREV 301210
RWRNV
NEVADA REGIONAL WEATHER ROUNDUP
NATIONAL WEATHER SERVICE RENO NV
500 AM PDT FRI SEP 30 2022

NOTE: "FAIR" INDICATES FEW OR NO CLOUDS BELOW 12,000 FEET WITH NO
SIGNIFICANT WEATHER AND/OR OBSTRUCTIONS TO VISIBILITY.

NVZ001-003-004-301300-
WESTERN NEVADA

CITY           SKY/WX    TMP DP  RH WIND       PRES   REMARKS
RENO           CLEAR     51  34  52 CALM      30.14S
6HR MIN TEMP:  51; 6HR MAX TEMP:  65;

CARSON CITY    FAIR      45  28  53 CALM      30.16R
MINDEN         FAIR      39  28  65 SE5       30.14S
PYRAMID LAKE     N/A     59 N/A N/A SW7         N/A
FALLON         CLEAR     45  30  55 S5        30.12R
6HR MIN TEMP:  44; 6HR MAX TEMP:  63;

LOVELOCK       CLEAR     48  30  49 NE7       30.12S
6HR MIN TEMP:  48; 6HR MAX TEMP:  64;

HAWTHORNE      CLEAR     59  34  38 NW12      30.12S
$$

NVZ002-CAZ072-073-301300-
NORTHERN AND CENTRAL SIERRA

CITY           SKY/WX    TMP DP  RH WIND       PRES   REMARKS
S. LAKE TAHOE  CLEAR     35  31  85 S6        30.18S
6HR MIN TEMP:  35; 6HR MAX TEMP:  45;

TRUCKEE        CLEAR     36  34  93 CALM      30.20S
BLUE CANYON    CLEAR     61  32  33 E3        30.11S
SUSANVILLE     FAIR      41  32  70 NW6       30.15S
MAMMOTH LAKES  FAIR      46  28  49 W9        30.22S
BRIDGEPORT       N/A     28  27  93 SW3         N/A
$$

NVZ030-031-036-301300-
NORTHERN NEVADA

CITY           SKY/WX    TMP DP  RH WIND       PRES   REMARKS
ELKO           CLEAR     37  28  70 CALM      30.16S
6HR MIN TEMP:  37; 6HR MAX TEMP:  58;

WINNEMUCCA     CLEAR     37  32  82 CALM      30.15S
6HR MIN TEMP:  36; 6HR MAX TEMP:  51;

BATTLE MOUNTAI SUNNY     37  25  60 SE5       30.16S
WENDOVER       CLEAR     54  34  46 NW6       30.12S
$$

NVZ035-037-301300-
CENTRAL NEVADA

CITY           SKY/WX    TMP DP  RH WIND       PRES   REMARKS
ELY            PTCLDY    37  28  70 S6        30.18S
6HR MIN TEMP:  36; 6HR MAX TEMP:  56;

EUREKA           N/A     41  26  55 S6        30.18S
6HR MIN TEMP:  36; 6HR MAX TEMP:  50;

$$

NVZ013-014-301300-
SOUTH CENTRAL NEVADA

CITY           SKY/WX    TMP DP  RH WIND       PRES   REMARKS
TONOPAH        CLEAR     53  25  33 VRB5      30.12R
6HR MIN TEMP:  53; 6HR MAX TEMP:  63;

$$

NVZ017-020-022-301300-
SOUTHERN NEVADA

CITY           SKY/WX    TMP DP  RH WIND       PRES   REMARKS
LAS VEGAS      CLEAR     78  40  25 S8        29.89S
6HR MIN TEMP:  78; 6HR MAX TEMP:  85;

N. LAS VEGAS   CLEAR     75  53  46 CALM      29.88S
6HR MIN TEMP:  74; 6HR MAX TEMP:  84;

NELLIS AFB     CLEAR     76  55  46 NE6       29.85R
6HR MIN TEMP:  76; 6HR MAX TEMP:  85;

HENDERSON      CLEAR     74  42  31 S12       29.93S
6HR MIN TEMP:  74; 6HR MAX TEMP:  82;

MERCURY        CLEAR     67  32  27 VRB5      29.95R
6HR MIN TEMP:  65; 6HR MAX TEMP:  78;

$$



USA.gov is the U.S. government's official web portal to all federal, state and local government web resources and services.